contact:dominique.lefevre@mio.osupytheas.fr, maurice.libes@osupytheas.fr, didier.mallarino@osupytheas.fr
Project:EMSO http://www.emso-fr.org/EMSO-France
Depth: 2436.0 m
Title:EMSO Ligure Ouest : Data MII capteur CSTAR
DateTime,Latitude,Longitude,Instrument_Serial,Reference_Counts,Signal_Counts,Corrected_Signal_raw_counts,Calculated_Beam_c_inverse_meters,Internal_thermistor_counts
DateTime,Latitude,Longitude,Instrument_Serial,Reference_Counts,Signal_Counts,Corrected_Signal_raw_counts,Calculated_Beam_c_inverse_meters,Internal_thermistor_counts
2022-01-14T00:01:43,42.805,6.029,CST-1368DR,4975,6309,13549,0.568,551
2022-01-14T00:04:45,42.805,6.029,CST-1368DR,4975,6309,13551,0.567,551
2022-01-14T00:07:46,42.805,6.029,CST-1368DR,4975,6309,13549,0.568,551
2022-01-14T00:10:48,42.805,6.029,CST-1368DR,4975,6308,13549,0.568,551
2022-01-14T00:13:50,42.805,6.029,CST-1368DR,4975,6309,13550,0.568,551
2022-01-14T00:16:51,42.805,6.029,CST-1368DR,4975,6307,13546,0.569,551
2022-01-14T00:19:53,42.805,6.029,CST-1368DR,4975,6308,13549,0.568,551
2022-01-14T00:22:54,42.805,6.029,CST-1368DR,4975,6309,13550,0.568,551
2022-01-14T00:25:56,42.805,6.029,CST-1368DR,4975,6309,13550,0.568,551
2022-01-14T00:28:57,42.805,6.029,CST-1368DR,4975,6309,13549,0.568,551
2022-01-14T00:31:59,42.805,6.029,CST-1368DR,4975,6309,13549,0.568,551
2022-01-14T00:35:01,42.805,6.029,CST-1368DR,4975,6308,13549,0.568,551
2022-01-14T00:38:02,42.805,6.029,CST-1368DR,4975,6309,13549,0.568,551
2022-01-14T00:41:04,42.805,6.029,CST-1368DR,4975,6302,13536,0.572,551
2022-01-14T00:44:05,42.805,6.029,CST-1368DR,4975,6309,13549,0.568,551
2022-01-14T00:47:07,42.805,6.029,CST-1368DR,4975,6309,13549,0.568,551
2022-01-14T00:50:09,42.805,6.029,CST-1368DR,4975,6309,13550,0.568,551
2022-01-14T00:53:10,42.805,6.029,CST-1368DR,4975,6309,13550,0.568,551
2022-01-14T00:56:12,42.805,6.029,CST-1368DR,4975,6308,13547,0.569,551
2022-01-14T00:59:13,42.805,6.029,CST-1368DR,4975,6308,13547,0.569,551
2022-01-14T01:02:15,42.805,6.029,CST-1368DR,4975,6308,13548,0.568,550
2022-01-14T01:05:16,42.805,6.029,CST-1368DR,4975,6308,13549,0.568,551
2022-01-14T01:08:18,42.805,6.029,CST-1368DR,4975,6308,13548,0.568,551
2022-01-14T01:11:20,42.805,6.029,CST-1368DR,4975,6308,13548,0.568,551
2022-01-14T01:14:21,42.805,6.029,CST-1368DR,4975,6309,13549,0.568,551
2022-01-14T01:17:23,42.805,6.029,CST-1368DR,4975,6308,13549,0.568,551
2022-01-14T01:20:24,42.805,6.029,CST-1368DR,4975,6309,13549,0.568,551
2022-01-14T01:23:26,42.805,6.029,CST-1368DR,4975,6308,13549,0.568,551
2022-01-14T01:26:27,42.805,6.029,CST-1368DR,4975,6308,13548,0.568,551
2022-01-14T01:29:29,42.805,6.029,CST-1368DR,4975,6308,13549,0.568,551
2022-01-14T01:32:31,42.805,6.029,CST-1368DR,4975,6308,13549,0.568,551
2022-01-14T01:35:32,42.805,6.029,CST-1368DR,4975,6308,13548,0.568,551
2022-01-14T01:38:34,42.805,6.029,CST-1368DR,4975,6308,13549,0.568,551
2022-01-14T01:41:35,42.805,6.029,CST-1368DR,4975,6308,13548,0.568,551
2022-01-14T01:44:37,42.805,6.029,CST-1368DR,4975,6308,13548,0.568,551
2022-01-14T01:47:39,42.805,6.029,CST-1368DR,4975,6308,13548,0.568,551
2022-01-14T01:50:40,42.805,6.029,CST-1368DR,4975,6308,13549,0.568,551
2022-01-14T01:53:42,42.805,6.029,CST-1368DR,4975,6308,13549,0.568,551
2022-01-14T01:56:43,42.805,6.029,CST-1368DR,4975,6309,13549,0.568,551
2022-01-14T01:59:45,42.805,6.029,CST-1368DR,4975,6308,13548,0.568,551
2022-01-14T02:02:46,42.805,6.029,CST-1368DR,4975,6308,13549,0.568,551
2022-01-14T02:05:48,42.805,6.029,CST-1368DR,4975,6308,13547,0.569,551
2022-01-14T02:08:50,42.805,6.029,CST-1368DR,4975,6309,13550,0.568,551
2022-01-14T02:11:51,42.805,6.029,CST-1368DR,4975,6309,13549,0.568,551
2022-01-14T02:14:53,42.805,6.029,CST-1368DR,4975,6308,13549,0.568,551
2022-01-14T02:17:54,42.805,6.029,CST-1368DR,4975,6308,13548,0.568,551
2022-01-14T02:20:56,42.805,6.029,CST-1368DR,4975,6309,13550,0.568,551
2022-01-14T02:23:58,42.805,6.029,CST-1368DR,4975,6308,13549,0.568,551
2022-01-14T02:26:59,42.805,6.029,CST-1368DR,4975,6308,13549,0.568,551
2022-01-14T02:30:01,42.805,6.029,CST-1368DR,4975,6309,13550,0.568,551
2022-01-14T02:33:02,42.805,6.029,CST-1368DR,4975,6309,13549,0.568,551
2022-01-14T02:36:04,42.805,6.029,CST-1368DR,4975,6309,13549,0.568,551
2022-01-14T02:39:05,42.805,6.029,CST-1368DR,4975,6309,13549,0.568,551
2022-01-14T02:42:07,42.805,6.029,CST-1368DR,4975,6308,13549,0.568,551
2022-01-14T02:45:09,42.805,6.029,CST-1368DR,4975,6308,13549,0.568,551
2022-01-14T02:48:10,42.805,6.029,CST-1368DR,4975,6309,13549,0.568,551
2022-01-14T02:51:12,42.805,6.029,CST-1368DR,4975,6308,13548,0.568,551
2022-01-14T02:54:13,42.805,6.029,CST-1368DR,4975,6308,13549,0.568,551
2022-01-14T02:57:15,42.805,6.029,CST-1368DR,4975,6308,13548,0.568,551
2022-01-14T03:00:17,42.805,6.029,CST-1368DR,4974,6307,13548,0.568,551
2022-01-14T03:03:18,42.805,6.029,CST-1368DR,4975,6308,13548,0.568,551
2022-01-14T03:06:20,42.805,6.029,CST-1368DR,4975,6307,13546,0.569,551
2022-01-14T03:09:21,42.805,6.029,CST-1368DR,4975,6307,13546,0.569,551
2022-01-14T03:12:23,42.805,6.029,CST-1368DR,4975,6308,13548,0.568,551
2022-01-14T03:15:24,42.805,6.029,CST-1368DR,4975,6308,13548,0.568,551
2022-01-14T03:18:26,42.805,6.029,CST-1368DR,4974,6307,13548,0.568,551
2022-01-14T03:21:28,42.805,6.029,CST-1368DR,4974,6308,13550,0.568,551
2022-01-14T03:24:29,42.805,6.029,CST-1368DR,4974,6308,13551,0.567,551
2022-01-14T03:27:31,42.805,6.029,CST-1368DR,4975,6309,13549,0.568,551
2022-01-14T03:30:32,42.805,6.029,CST-1368DR,4975,6308,13547,0.569,551
2022-01-14T03:33:34,42.805,6.029,CST-1368DR,4975,6309,13550,0.568,551
2022-01-14T03:36:35,42.805,6.029,CST-1368DR,4975,6307,13546,0.569,551
2022-01-14T03:39:37,42.805,6.029,CST-1368DR,4975,6308,13549,0.568,551
2022-01-14T03:42:39,42.805,6.029,CST-1368DR,4975,6309,13549,0.568,551
2022-01-14T03:45:40,42.805,6.029,CST-1368DR,4975,6307,13546,0.569,551
2022-01-14T03:48:42,42.805,6.029,CST-1368DR,4975,6308,13547,0.569,551
2022-01-14T03:51:43,42.805,6.029,CST-1368DR,4975,6307,13546,0.569,551
2022-01-14T03:54:45,42.805,6.029,CST-1368DR,4975,6308,13548,0.568,551
2022-01-14T03:57:47,42.805,6.029,CST-1368DR,4975,6308,13547,0.569,551
2022-01-14T04:00:48,42.805,6.029,CST-1368DR,4975,6308,13549,0.568,551
2022-01-14T04:03:50,42.805,6.029,CST-1368DR,4975,6307,13545,0.569,551
2022-01-14T04:06:51,42.805,6.029,CST-1368DR,4975,6307,13545,0.569,551
2022-01-14T04:09:53,42.805,6.029,CST-1368DR,4975,6308,13547,0.569,551
2022-01-14T04:12:54,42.805,6.029,CST-1368DR,4975,6308,13547,0.569,551
2022-01-14T04:15:56,42.805,6.029,CST-1368DR,4974,6308,13550,0.568,551
2022-01-14T04:18:58,42.805,6.029,CST-1368DR,4975,6308,13547,0.569,551
2022-01-14T04:21:59,42.805,6.029,CST-1368DR,4975,6307,13545,0.569,551
2022-01-14T04:25:01,42.805,6.029,CST-1368DR,4975,6308,13549,0.568,551
2022-01-14T04:28:02,42.805,6.029,CST-1368DR,4975,6308,13548,0.568,551
2022-01-14T04:31:04,42.805,6.029,CST-1368DR,4975,6308,13548,0.568,551
2022-01-14T04:34:06,42.805,6.029,CST-1368DR,4975,6308,13548,0.568,551
2022-01-14T04:37:07,42.805,6.029,CST-1368DR,4975,6308,13548,0.568,551
2022-01-14T04:40:09,42.805,6.029,CST-1368DR,4975,6308,13547,0.569,551
2022-01-14T04:43:10,42.805,6.029,CST-1368DR,4975,6308,13548,0.568,551
2022-01-14T04:46:12,42.805,6.029,CST-1368DR,4975,6304,13540,0.571,551
2022-01-14T04:49:13,42.805,6.029,CST-1368DR,4975,6307,13545,0.569,551
2022-01-14T04:52:15,42.805,6.029,CST-1368DR,4975,6308,13547,0.569,551
2022-01-14T04:55:17,42.805,6.029,CST-1368DR,4975,6307,13546,0.569,551
2022-01-14T04:58:18,42.805,6.029,CST-1368DR,4975,6306,13544,0.569,551
2022-01-14T05:01:20,42.805,6.029,CST-1368DR,4975,6307,13545,0.569,551
2022-01-14T05:04:21,42.805,6.029,CST-1368DR,4974,6307,13548,0.568,551
2022-01-14T05:07:23,42.805,6.029,CST-1368DR,4975,6306,13544,0.569,551
2022-01-14T05:10:24,42.805,6.029,CST-1368DR,4974,6307,13548,0.568,551
2022-01-14T05:13:26,42.805,6.029,CST-1368DR,4974,6307,13548,0.568,551
2022-01-14T05:16:28,42.805,6.029,CST-1368DR,4974,6306,13546,0.569,551
2022-01-14T05:19:29,42.805,6.029,CST-1368DR,4974,6307,13548,0.568,551
2022-01-14T05:22:31,42.805,6.029,CST-1368DR,4974,6308,13550,0.568,551
2022-01-14T05:25:32,42.805,6.029,CST-1368DR,4974,6307,13549,0.568,551
2022-01-14T05:28:34,42.805,6.029,CST-1368DR,4974,6308,13550,0.568,551
2022-01-14T05:31:36,42.805,6.029,CST-1368DR,4974,6306,13546,0.569,551
2022-01-14T05:34:37,42.805,6.029,CST-1368DR,4974,6307,13549,0.568,551
2022-01-14T05:37:39,42.805,6.029,CST-1368DR,4974,6306,13547,0.569,551
2022-01-14T05:40:40,42.805,6.029,CST-1368DR,4974,6307,13548,0.568,551
2022-01-14T05:43:42,42.805,6.029,CST-1368DR,4974,6307,13548,0.568,551
2022-01-14T05:46:43,42.805,6.029,CST-1368DR,4974,6306,13547,0.569,551
2022-01-14T05:49:45,42.805,6.029,CST-1368DR,4974,6306,13546,0.569,551
2022-01-14T05:52:47,42.805,6.029,CST-1368DR,4974,6307,13548,0.568,551
2022-01-14T05:55:48,42.805,6.029,CST-1368DR,4974,6307,13548,0.568,551
2022-01-14T05:58:50,42.805,6.029,CST-1368DR,4974,6306,13547,0.569,551
2022-01-14T06:01:51,42.805,6.029,CST-1368DR,4974,6307,13548,0.568,551
2022-01-14T06:04:53,42.805,6.029,CST-1368DR,4975,6306,13544,0.569,551
2022-01-14T06:07:55,42.805,6.029,CST-1368DR,4974,6305,13545,0.569,551
2022-01-14T06:10:56,42.805,6.029,CST-1368DR,4974,6307,13548,0.568,551
2022-01-14T06:13:58,42.805,6.029,CST-1368DR,4974,6307,13548,0.568,551
2022-01-14T06:16:59,42.805,6.029,CST-1368DR,4974,6306,13547,0.569,551
2022-01-14T06:20:01,42.805,6.029,CST-1368DR,4974,6306,13546,0.569,551
2022-01-14T06:23:02,42.805,6.029,CST-1368DR,4975,6306,13543,0.570,551
2022-01-14T06:26:04,42.805,6.029,CST-1368DR,4974,6305,13545,0.569,551
2022-01-14T06:29:06,42.805,6.029,CST-1368DR,4974,6306,13546,0.569,551
2022-01-14T06:32:07,42.805,6.029,CST-1368DR,4974,6305,13545,0.569,551
2022-01-14T06:35:09,42.805,6.029,CST-1368DR,4974,6306,13546,0.569,551
2022-01-14T06:38:10,42.805,6.029,CST-1368DR,4974,6305,13544,0.569,551
2022-01-14T06:41:12,42.805,6.029,CST-1368DR,4974,6304,13543,0.570,551
2022-01-14T06:44:13,42.805,6.029,CST-1368DR,4974,6305,13544,0.569,551
2022-01-14T06:47:15,42.805,6.029,CST-1368DR,4974,6305,13545,0.569,551
2022-01-14T06:50:17,42.805,6.029,CST-1368DR,4974,6304,13541,0.570,551
2022-01-14T06:53:18,42.805,6.029,CST-1368DR,4974,6305,13545,0.569,551
2022-01-14T06:56:20,42.805,6.029,CST-1368DR,4974,6305,13544,0.569,551
2022-01-14T06:59:21,42.805,6.029,CST-1368DR,4974,6306,13545,0.569,551
2022-01-14T07:02:23,42.805,6.029,CST-1368DR,4974,6305,13545,0.569,551
2022-01-14T07:05:25,42.805,6.029,CST-1368DR,4974,6305,13544,0.569,551
2022-01-14T07:08:26,42.805,6.029,CST-1368DR,4974,6302,13538,0.571,551
2022-01-14T07:11:28,42.805,6.029,CST-1368DR,4974,6306,13545,0.569,551
2022-01-14T07:14:29,42.805,6.029,CST-1368DR,4974,6305,13544,0.569,551
2022-01-14T07:17:31,42.805,6.029,CST-1368DR,4974,6303,13540,0.571,551
2022-01-14T07:20:32,42.805,6.029,CST-1368DR,4974,6306,13545,0.569,551
2022-01-14T07:23:34,42.805,6.029,CST-1368DR,4974,6304,13541,0.570,551
2022-01-14T07:26:36,42.805,6.029,CST-1368DR,4974,6306,13545,0.569,551
2022-01-14T07:29:37,42.805,6.029,CST-1368DR,4974,6306,13546,0.569,551
2022-01-14T07:32:39,42.805,6.029,CST-1368DR,4974,6305,13544,0.569,551
2022-01-14T07:35:40,42.805,6.029,CST-1368DR,4974,6306,13545,0.569,551
2022-01-14T07:38:42,42.805,6.029,CST-1368DR,4974,6305,13543,0.570,551
2022-01-14T07:41:44,42.805,6.029,CST-1368DR,4974,6304,13543,0.570,551
2022-01-14T07:44:45,42.805,6.029,CST-1368DR,4974,6305,13544,0.569,551
2022-01-14T07:47:47,42.805,6.029,CST-1368DR,4974,6305,13545,0.569,551
2022-01-14T07:50:48,42.805,6.029,CST-1368DR,4974,6306,13545,0.569,551
2022-01-14T07:53:50,42.805,6.029,CST-1368DR,4974,6305,13544,0.569,551
2022-01-14T07:56:51,42.805,6.029,CST-1368DR,4974,6304,13541,0.570,551
2022-01-14T07:59:53,42.805,6.029,CST-1368DR,4974,6306,13547,0.569,551
2022-01-14T08:02:55,42.805,6.029,CST-1368DR,4974,6306,13546,0.569,551
2022-01-14T08:05:56,42.805,6.029,CST-1368DR,4974,6305,13545,0.569,551
2022-01-14T08:08:58,42.805,6.029,CST-1368DR,4974,6305,13544,0.569,551
2022-01-14T08:11:59,42.805,6.029,CST-1368DR,4974,6303,13540,0.571,551
2022-01-14T08:15:01,42.805,6.029,CST-1368DR,4974,6305,13544,0.569,551
2022-01-14T08:18:02,42.805,6.029,CST-1368DR,4974,6305,13544,0.569,551
2022-01-14T08:21:04,42.805,6.029,CST-1368DR,4974,6305,13544,0.569,551
2022-01-14T08:24:06,42.805,6.029,CST-1368DR,4974,6305,13544,0.569,551
2022-01-14T08:27:07,42.805,6.029,CST-1368DR,4974,6305,13543,0.570,551
2022-01-14T08:30:09,42.805,6.029,CST-1368DR,4974,6306,13546,0.569,551
2022-01-14T08:33:10,42.805,6.029,CST-1368DR,4974,6305,13544,0.569,551
2022-01-14T08:36:12,42.805,6.029,CST-1368DR,4974,6304,13543,0.570,551
2022-01-14T08:39:14,42.805,6.029,CST-1368DR,4974,6305,13544,0.569,551
2022-01-14T08:42:15,42.805,6.029,CST-1368DR,4974,6303,13541,0.570,550
2022-01-14T08:45:17,42.805,6.029,CST-1368DR,4974,6303,13541,0.570,551
2022-01-14T08:48:18,42.805,6.029,CST-1368DR,4974,6305,13544,0.569,551
2022-01-14T08:51:20,42.805,6.029,CST-1368DR,4974,6305,13543,0.570,551
2022-01-14T08:54:21,42.805,6.029,CST-1368DR,4974,6305,13544,0.569,551
2022-01-14T08:57:23,42.805,6.029,CST-1368DR,4974,6304,13543,0.570,551
2022-01-14T09:00:25,42.805,6.029,CST-1368DR,4974,6305,13544,0.569,551
2022-01-14T09:03:26,42.805,6.029,CST-1368DR,4974,6305,13544,0.569,551
2022-01-14T09:06:28,42.805,6.029,CST-1368DR,4974,6304,13541,0.570,551
2022-01-14T09:09:29,42.805,6.029,CST-1368DR,4974,6305,13545,0.569,551
2022-01-14T09:12:31,42.805,6.029,CST-1368DR,4974,6306,13545,0.569,551
2022-01-14T09:15:33,42.805,6.029,CST-1368DR,4974,6303,13541,0.570,551
2022-01-14T09:18:34,42.805,6.029,CST-1368DR,4974,6304,13543,0.570,551
2022-01-14T09:21:36,42.805,6.029,CST-1368DR,4974,6304,13542,0.570,551
2022-01-14T09:24:37,42.805,6.029,CST-1368DR,4974,6305,13545,0.569,551
2022-01-14T09:27:39,42.805,6.029,CST-1368DR,4974,6306,13545,0.569,551
2022-01-14T09:30:40,42.805,6.029,CST-1368DR,4974,6305,13544,0.569,551
2022-01-14T09:33:42,42.805,6.029,CST-1368DR,4974,6306,13545,0.569,551
2022-01-14T09:36:44,42.805,6.029,CST-1368DR,4974,6305,13544,0.569,551
2022-01-14T09:39:45,42.805,6.029,CST-1368DR,4974,6305,13544,0.569,551
2022-01-14T09:42:47,42.805,6.029,CST-1368DR,4974,6304,13542,0.570,551
2022-01-14T09:45:48,42.805,6.029,CST-1368DR,4974,6305,13543,0.570,551
2022-01-14T09:48:50,42.805,6.029,CST-1368DR,4974,6305,13544,0.569,551
2022-01-14T09:51:51,42.805,6.029,CST-1368DR,4974,6305,13543,0.570,551
2022-01-14T09:54:53,42.805,6.029,CST-1368DR,4974,6305,13544,0.569,551
2022-01-14T09:57:55,42.805,6.029,CST-1368DR,4974,6305,13543,0.570,551
2022-01-14T10:00:56,42.805,6.029,CST-1368DR,4974,6305,13545,0.569,551
2022-01-14T10:03:58,42.805,6.029,CST-1368DR,4974,6304,13543,0.570,551
2022-01-14T10:06:59,42.805,6.029,CST-1368DR,4974,6305,13544,0.569,551
2022-01-14T10:10:01,42.805,6.029,CST-1368DR,4974,6303,13540,0.571,551
2022-01-14T10:13:03,42.805,6.029,CST-1368DR,4974,6304,13543,0.570,551
2022-01-14T10:16:04,42.805,6.029,CST-1368DR,4974,6306,13545,0.569,551
2022-01-14T10:19:06,42.805,6.029,CST-1368DR,4974,6304,13543,0.570,551
2022-01-14T10:22:07,42.805,6.029,CST-1368DR,4974,6305,13544,0.569,551
2022-01-14T10:25:09,42.805,6.029,CST-1368DR,4974,6304,13541,0.570,551
2022-01-14T10:28:10,42.805,6.029,CST-1368DR,4974,6305,13543,0.570,551
2022-01-14T10:31:12,42.805,6.029,CST-1368DR,4974,6305,13544,0.569,551
2022-01-14T10:34:14,42.805,6.029,CST-1368DR,4974,6305,13545,0.569,551
2022-01-14T10:37:15,42.805,6.029,CST-1368DR,4974,6305,13544,0.569,551
2022-01-14T10:40:17,42.805,6.029,CST-1368DR,4974,6304,13543,0.570,551
2022-01-14T10:43:18,42.805,6.029,CST-1368DR,4974,6305,13544,0.569,551
2022-01-14T10:46:20,42.805,6.029,CST-1368DR,4974,6304,13543,0.570,551
2022-01-14T10:49:22,42.805,6.029,CST-1368DR,4974,6305,13544,0.569,551
2022-01-14T10:52:23,42.805,6.029,CST-1368DR,4974,6305,13544,0.569,551
2022-01-14T10:55:25,42.805,6.029,CST-1368DR,4974,6306,13545,0.569,551
2022-01-14T10:58:26,42.805,6.029,CST-1368DR,4974,6306,13545,0.569,551
2022-01-14T11:01:28,42.805,6.029,CST-1368DR,4974,6305,13545,0.569,551
2022-01-14T11:04:29,42.805,6.029,CST-1368DR,4974,6305,13544,0.569,551
2022-01-14T11:07:31,42.805,6.029,CST-1368DR,4974,6305,13543,0.570,551
2022-01-14T11:10:33,42.805,6.029,CST-1368DR,4974,6303,13541,0.570,551
2022-01-14T11:13:34,42.805,6.029,CST-1368DR,4974,6304,13543,0.570,551
2022-01-14T11:16:36,42.805,6.029,CST-1368DR,4974,6305,13544,0.569,551
2022-01-14T11:19:37,42.805,6.029,CST-1368DR,4974,6305,13545,0.569,551
2022-01-14T11:22:39,42.805,6.029,CST-1368DR,4974,6305,13543,0.570,551
2022-01-14T11:25:41,42.805,6.029,CST-1368DR,4974,6304,13543,0.570,551
2022-01-14T11:28:42,42.805,6.029,CST-1368DR,4974,6304,13541,0.570,551
2022-01-14T11:31:44,42.805,6.029,CST-1368DR,4974,6305,13544,0.569,551
2022-01-14T11:34:45,42.805,6.029,CST-1368DR,4974,6305,13544,0.569,551
2022-01-14T11:37:47,42.805,6.029,CST-1368DR,4974,6304,13543,0.570,551
2022-01-14T11:40:48,42.805,6.029,CST-1368DR,4974,6305,13545,0.569,551
2022-01-14T11:43:50,42.805,6.029,CST-1368DR,4974,6305,13545,0.569,551
2022-01-14T11:46:52,42.805,6.029,CST-1368DR,4974,6305,13544,0.569,551
2022-01-14T11:49:53,42.805,6.029,CST-1368DR,4974,6305,13544,0.569,551
2022-01-14T11:52:55,42.805,6.029,CST-1368DR,4974,6305,13544,0.569,551
2022-01-14T11:55:56,42.805,6.029,CST-1368DR,4974,6305,13544,0.569,551
2022-01-14T11:58:58,42.805,6.029,CST-1368DR,4974,6305,13544,0.569,551
2022-01-14T12:01:59,42.805,6.029,CST-1368DR,4974,6305,13544,0.569,551
2022-01-14T12:05:01,42.805,6.029,CST-1368DR,4974,6305,13544,0.569,551
2022-01-14T12:08:03,42.805,6.029,CST-1368DR,4974,6305,13543,0.570,551
2022-01-14T12:11:04,42.805,6.029,CST-1368DR,4974,6305,13544,0.569,551
2022-01-14T12:14:06,42.805,6.029,CST-1368DR,4974,6305,13544,0.569,551
2022-01-14T12:17:07,42.805,6.029,CST-1368DR,4974,6305,13544,0.569,551
2022-01-14T12:20:09,42.805,6.029,CST-1368DR,4974,6305,13543,0.570,551
2022-01-14T12:23:11,42.805,6.029,CST-1368DR,4974,6305,13543,0.570,551
2022-01-14T12:26:12,42.805,6.029,CST-1368DR,4974,6305,13544,0.569,551
2022-01-14T12:29:14,42.805,6.029,CST-1368DR,4974,6305,13543,0.570,551
2022-01-14T12:32:15,42.805,6.029,CST-1368DR,4974,6305,13544,0.569,551
2022-01-14T12:35:17,42.805,6.029,CST-1368DR,4974,6305,13544,0.569,551
2022-01-14T12:38:18,42.805,6.029,CST-1368DR,4974,6305,13544,0.569,551
2022-01-14T12:41:20,42.805,6.029,CST-1368DR,4974,6305,13543,0.570,551
2022-01-14T12:44:22,42.805,6.029,CST-1368DR,4974,6304,13542,0.570,551
2022-01-14T12:47:23,42.805,6.029,CST-1368DR,4974,6304,13543,0.570,551
2022-01-14T12:50:25,42.805,6.029,CST-1368DR,4974,6304,13543,0.570,551
2022-01-14T12:53:26,42.805,6.029,CST-1368DR,4974,6304,13543,0.570,551
2022-01-14T12:56:28,42.805,6.029,CST-1368DR,4974,6305,13543,0.570,551
2022-01-14T12:59:30,42.805,6.029,CST-1368DR,4974,6305,13543,0.570,551
2022-01-14T13:02:31,42.805,6.029,CST-1368DR,4974,6304,13542,0.570,551
2022-01-14T13:05:33,42.805,6.029,CST-1368DR,4974,6303,13540,0.571,551
2022-01-14T13:08:34,42.805,6.029,CST-1368DR,4974,6305,13544,0.569,551
2022-01-14T13:11:36,42.805,6.029,CST-1368DR,4974,6304,13541,0.570,551
2022-01-14T13:14:37,42.805,6.029,CST-1368DR,4974,6304,13543,0.570,551
2022-01-14T13:17:39,42.805,6.029,CST-1368DR,4974,6304,13542,0.570,551
2022-01-14T13:20:41,42.805,6.029,CST-1368DR,4974,6305,13543,0.570,551
2022-01-14T13:23:42,42.805,6.029,CST-1368DR,4974,6303,13541,0.570,551
2022-01-14T13:26:44,42.805,6.029,CST-1368DR,4974,6305,13544,0.569,551
2022-01-14T13:29:45,42.805,6.029,CST-1368DR,4974,6304,13542,0.570,551
2022-01-14T13:32:47,42.805,6.029,CST-1368DR,4974,6304,13542,0.570,551
2022-01-14T13:35:49,42.805,6.029,CST-1368DR,4974,6303,13540,0.571,551
2022-01-14T13:38:50,42.805,6.029,CST-1368DR,4973,6305,13546,0.569,551
2022-01-14T13:41:52,42.805,6.029,CST-1368DR,4974,6305,13543,0.570,551
2022-01-14T13:44:53,42.805,6.029,CST-1368DR,4974,6304,13543,0.570,551
2022-01-14T13:47:55,42.805,6.029,CST-1368DR,4974,6304,13541,0.570,551
2022-01-14T13:50:56,42.805,6.029,CST-1368DR,4974,6305,13544,0.569,551
2022-01-14T13:53:58,42.805,6.029,CST-1368DR,4974,6303,13540,0.571,551
2022-01-14T13:57:00,42.805,6.029,CST-1368DR,4974,6304,13543,0.570,551
2022-01-14T14:00:01,42.805,6.029,CST-1368DR,4974,6304,13542,0.570,551
2022-01-14T14:03:03,42.805,6.029,CST-1368DR,4973,6305,13546,0.569,551
2022-01-14T14:06:04,42.805,6.029,CST-1368DR,4974,6304,13543,0.570,551
2022-01-14T14:09:06,42.805,6.029,CST-1368DR,4973,6305,13546,0.569,551
2022-01-14T14:12:07,42.805,6.029,CST-1368DR,4973,6303,13543,0.570,551
2022-01-14T14:15:09,42.805,6.029,CST-1368DR,4973,6305,13546,0.569,551
2022-01-14T14:18:11,42.805,6.029,CST-1368DR,4973,6303,13543,0.570,551
2022-01-14T14:21:12,42.805,6.029,CST-1368DR,4974,6303,13541,0.570,551
2022-01-14T14:24:14,42.805,6.029,CST-1368DR,4973,6304,13545,0.569,551
2022-01-14T14:27:15,42.805,6.029,CST-1368DR,4973,6300,13536,0.572,551
2022-01-14T14:30:17,42.805,6.029,CST-1368DR,4974,6304,13543,0.570,551
2022-01-14T14:33:19,42.805,6.029,CST-1368DR,4973,6305,13546,0.569,551
2022-01-14T14:36:20,42.805,6.029,CST-1368DR,4974,6305,13543,0.570,551
2022-01-14T14:39:22,42.805,6.029,CST-1368DR,4973,6305,13546,0.569,551
2022-01-14T14:42:23,42.805,6.029,CST-1368DR,4973,6304,13545,0.569,551
2022-01-14T14:45:25,42.805,6.029,CST-1368DR,4973,6303,13543,0.570,551
2022-01-14T14:48:26,42.805,6.029,CST-1368DR,4973,6303,13543,0.570,551
2022-01-14T14:51:28,42.805,6.029,CST-1368DR,4973,6303,13543,0.570,551
2022-01-14T14:54:30,42.805,6.029,CST-1368DR,4973,6303,13543,0.570,551
2022-01-14T14:57:31,42.805,6.029,CST-1368DR,4973,6304,13544,0.569,551
2022-01-14T15:00:33,42.805,6.029,CST-1368DR,4973,6303,13542,0.570,551
2022-01-14T15:03:34,42.805,6.029,CST-1368DR,4973,6304,13545,0.569,551
2022-01-14T15:06:36,42.805,6.029,CST-1368DR,4973,6305,13546,0.569,551
2022-01-14T15:09:38,42.805,6.029,CST-1368DR,4973,6305,13546,0.569,551
2022-01-14T15:12:39,42.805,6.029,CST-1368DR,4973,6305,13547,0.569,551
2022-01-14T15:15:41,42.805,6.029,CST-1368DR,4973,6303,13543,0.570,551
2022-01-14T15:18:42,42.805,6.029,CST-1368DR,4973,6303,13543,0.570,551
2022-01-14T15:21:44,42.805,6.029,CST-1368DR,4973,6304,13545,0.569,551
2022-01-14T15:24:45,42.805,6.029,CST-1368DR,4973,6304,13545,0.569,551
2022-01-14T15:27:47,42.805,6.029,CST-1368DR,4973,6304,13545,0.569,551
2022-01-14T15:30:49,42.805,6.029,CST-1368DR,4973,6304,13545,0.569,551
2022-01-14T15:33:50,42.805,6.029,CST-1368DR,4973,6304,13544,0.569,551
2022-01-14T15:36:52,42.805,6.029,CST-1368DR,4973,6303,13543,0.570,551
2022-01-14T15:39:53,42.805,6.029,CST-1368DR,4973,6304,13545,0.569,551
2022-01-14T15:42:55,42.805,6.029,CST-1368DR,4973,6304,13545,0.569,551
2022-01-14T15:45:56,42.805,6.029,CST-1368DR,4973,6303,13542,0.570,551
2022-01-14T15:48:58,42.805,6.029,CST-1368DR,4973,6304,13545,0.569,551
2022-01-14T15:52:00,42.805,6.029,CST-1368DR,4973,6304,13545,0.569,551
2022-01-14T15:55:01,42.805,6.029,CST-1368DR,4973,6304,13545,0.569,551
2022-01-14T15:58:03,42.805,6.029,CST-1368DR,4973,6303,13542,0.570,551
2022-01-14T16:01:04,42.805,6.029,CST-1368DR,4973,6303,13543,0.570,551
2022-01-14T16:04:06,42.805,6.029,CST-1368DR,4973,6303,13542,0.570,551
2022-01-14T16:07:08,42.805,6.029,CST-1368DR,4973,6304,13544,0.569,551
2022-01-14T16:10:09,42.805,6.029,CST-1368DR,4973,6304,13545,0.569,551
2022-01-14T16:13:11,42.805,6.029,CST-1368DR,4973,6304,13544,0.569,551
2022-01-14T16:16:12,42.805,6.029,CST-1368DR,4973,6303,13543,0.570,551
2022-01-14T16:19:14,42.805,6.029,CST-1368DR,4973,6304,13544,0.569,551
2022-01-14T16:22:15,42.805,6.029,CST-1368DR,4973,6303,13543,0.570,551
2022-01-14T16:25:17,42.805,6.029,CST-1368DR,4973,6303,13542,0.570,551
2022-01-14T16:28:19,42.805,6.029,CST-1368DR,4973,6304,13544,0.569,551
2022-01-14T16:31:20,42.805,6.029,CST-1368DR,4973,6303,13543,0.570,551
2022-01-14T16:34:22,42.805,6.029,CST-1368DR,4973,6304,13544,0.569,551
2022-01-14T16:37:23,42.805,6.029,CST-1368DR,4973,6304,13544,0.569,551
2022-01-14T16:40:25,42.805,6.029,CST-1368DR,4973,6304,13545,0.569,551
2022-01-14T16:43:26,42.805,6.029,CST-1368DR,4973,6304,13544,0.569,551
2022-01-14T16:46:28,42.805,6.029,CST-1368DR,4973,6304,13545,0.569,551
2022-01-14T16:49:30,42.805,6.029,CST-1368DR,4973,6302,13540,0.571,551
2022-01-14T16:52:31,42.805,6.029,CST-1368DR,4973,6302,13540,0.571,551